This is the latest recevied weather packets stored in our database for station/object VU3HGG-15. If no packets are shown the sender has not sent any weather packets the latest 10 day(s).
| Time | Temp. | Humidity | Pressure | Rain* | Wind** | Luminosity | Snow |
|---|---|---|---|---|---|---|---|
| 1787708914 | 25.56° C | 70% | 911.3 hPa | - | - | - | - |
| 1787708314 | 25.56° C | 70% | 911.3 hPa | - | - | - | - |
| 1787707714 | 25.56° C | 70% | 911.2 hPa | - | - | - | - |
| 1787707114 | 26.11° C | 70% | 911.1 hPa | - | - | - | - |
| 1787706514 | 25.56° C | 70% | 911 hPa | - | - | - | - |
| 1787705914 | 25.56° C | 70% | 910.8 hPa | - | - | - | - |
| 1787705314 | 26.11° C | 69% | 910.9 hPa | - | - | - | - |
| 1787704714 | 26.11° C | 69% | 910.7 hPa | - | - | - | - |
| 1787704114 | 26.11° C | 69% | 910.7 hPa | - | - | - | - |
| 1787703515 | 26.11° C | 69% | 910.5 hPa | - | - | - | - |
| 1787702914 | 26.11° C | 69% | 910.5 hPa | - | - | - | - |
| 1787702314 | 26.11° C | 69% | 910.5 hPa | - | - | - | - |
| 1787701715 | 26.67° C | 69% | 910.4 hPa | - | - | - | - |
| 1787701114 | 26.67° C | 68% | 910.4 hPa | - | - | - | - |
| 1787700514 | 26.67° C | 68% | 910.3 hPa | - | - | - | - |
| 1787699915 | 27.22° C | 68% | 910.2 hPa | - | - | - | - |
| 1787699314 | 27.22° C | 69% | 910.2 hPa | - | - | - | - |
| 1787698714 | 27.22° C | 69% | 910.1 hPa | - | - | - | - |
| 1787698115 | 27.22° C | 69% | 910 hPa | - | - | - | - |
| 1787697514 | 26.67° C | 70% | 910 hPa | - | - | - | - |
| 1787696915 | 26.67° C | 70% | 910 hPa | - | - | - | - |
| 1787696314 | 27.22° C | 69% | 909.9 hPa | - | - | - | - |
| 1787695714 | 27.22° C | 69% | 910.1 hPa | - | - | - | - |
| 1787695115 | 26.67° C | 70% | 910.2 hPa | - | - | - | - |
| 1787694515 | 26.67° C | 70% | 910.4 hPa | - | - | - | - |
* Rain since midnight (hover to see other rain measurements)
** Current wind speed in m/s (hover to see current wind gust speed)